1483488000.48,32948,8.81,72020.0,-11.75,-13.47,-13.65,0,*66
1483488001.69,32949,8.81,72008.0,-11.75,-13.47,-13.73,0,*60
1483488002.92,32950,8.81,72064.5,-11.75,-13.47,-13.79,0,*62
1483488004.15,32951,8.81,72084.5,-11.73,-13.47,-13.93,0,*61
1483488005.38,32952,8.81,72080.3,-11.73,-13.47,-13.93,0,*62
1483488006.64,32953,8.81,72090.3,-11.75,-13.33,-13.87,0,*63
1483488007.84,32954,8.81,72090.3,-11.75,-13.43,-13.93,0,*66
1483488009.11,32955,8.81,72092.5,-11.73,-13.47,-14.05,0,*6D
1483488010.33,32956,8.81,72092.3,-11.73,-13.47,-13.93,0,*66
1483488011.63,32957,8.81,72066.8,-11.71,-13.29,-13.87,0,*68
1483488012.89,32958,8.81,72072.5,-11.73,-13.55,-13.87,0,*6E
1483488014.15,32959,8.81,72050.0,-11.73,-13.55,-14.01,0,*66
1483488015.42,32960,8.81,72068.8,-11.73,-13.55,-14.01,0,*6C
1483488016.68,32961,8.81,72076.8,-11.73,-13.47,-14.01,0,*6E
1483488017.92,32962,8.81,72068.8,-11.73,-13.47,-14.15,0,*68
1483488019.16,32963,8.81,72064.8,-11.73,-13.55,-14.19,0,*66
1483488020.45,32964,8.81,72064.8,-11.73,-13.61,-14.05,0,*6B
1483488021.71,32965,8.81,72074.0,-11.73,-13.61,-14.15,0,*6B
1483488023.02,32966,8.81,72078.0,-11.71,-13.61,-14.01,0,*6F
1483488024.26,32967,8.81,72050.8,-11.71,-13.55,-14.11,0,*68
1483488025.47,32968,8.81,72042.0,-11.69,-13.55,-14.11,0,*6E
1483488026.72,32969,8.81,72058.0,-11.71,-13.69,-14.29,0,*62
1483488028.02,32970,8.81,72062.8,-11.71,-13.83,-14.43,0,*62
1483488029.32,32971,8.81,72082.0,-11.71,-13.97,-14.47,0,*62
1483488030.61,32972,8.81,72074.3,-11.73,-13.87,-14.51,0,*65
1483488031.92,32973,8.81,72092.8,-11.71,-13.87,-14.47,0,*61
1483488033.21,32974,8.81,72102.5,-11.71,-13.83,-14.43,0,*66
1483488034.48,32975,8.81,72088.3,-11.71,-13.87,-14.37,0,*60
1483488035.76,32976,8.81,72094.8,-11.71,-13.83,-14.37,0,*67
1483488037.03,32977,8.81,72100.8,-11.71,-13.87,-14.29,0,*6D
1483488038.28,32978,8.81,72086.8,-11.69,-13.87,-14.15,0,*64
1483488039.53,32979,8.81,72086.5,-11.69,-13.83,-14.15,0,*61
1483488040.79,32980,8.81,72090.8,-11.73,-13.87,-14.29,0,*67
1483488042.06,32981,8.81,72088.0,-11.73,-13.73,-14.01,0,*67
1483488043.31,32982,8.81,72082.5,-11.73,-13.47,-13.79,0,*6B
1483488044.56,32983,8.81,72088.8,-11.73,-13.33,-13.47,0,*64
1483488045.8,32984,8.81,72076.8,-11.69,-13.15,-13.37,0,*6B
1483488047.04,32985,8.81,72062.8,-11.71,-13.15,-13.23,0,*66
1483488048.31,32986,8.81,72058.5,-11.71,-13.15,-13.29,0,*6F
1483488049.58,32987,8.81,72076.0,-11.71,-13.23,-13.37,0,*64
1483488050.85,32988,8.81,72056.3,-11.71,-13.29,-13.43,0,*62
1483488052.06,32989,8.81,72060.5,-11.69,-13.15,-13.43,0,*65
1483488053.3,32990,8.81,72052.5,-11.69,-13.23,-13.37,0,*6B
1483488054.57,32991,8.81,72062.3,-11.71,-13.15,-13.37,0,*66
1483488055.8,32992,8.81,72074.0,-11.69,-13.15,-13.37,0,*6C
1483488057.07,32993,8.81,72058.5,-11.71,-13.23,-13.37,0,*61
1483488058.34,32994,8.81,72018.5,-11.71,-13.15,-13.29,0,*6C
1483488059.57,32995,8.81,72034.3,-11.69,-13.15,-13.29,0,*64
1483488060.82,32996,8.81,72036.3,-11.69,-13.23,-13.37,0,*6D
1483488062.05,32997,8.81,72044.3,-11.69,-13.15,-13.37,0,*69
1483488063.3,32998,8.81,72034.3,-11.69,-13.23,-13.37,0,*63
1483488064.54,32999,8.81,72048.0,-11.69,-13.23,-13.37,0,*62
1483488065.77,33000,8.81,72044.8,-11.69,-13.15,-13.37,0,*6F
1483488067.01,33001,8.81,72022.5,-11.69,-13.15,-13.29,0,*61
1483488068.26,33002,8.81,72050.5,-11.67,-13.07,-13.19,0,*6C
1483488069.5,33003,8.81,72064.8,-11.67,-12.97,-13.23,0,*6C
1483488070.72,33004,8.81,72028.8,-11.65,-13.19,-13.19,0,*67
1483488071.94,33005,8.81,72054.0,-11.65,-13.19,-13.11,0,*6E
1483488073.17,33006,8.81,72058.0,-11.65,-13.19,-13.19,0,*65
1483488074.43,33007,8.81,72042.0,-11.67,-13.11,-13.33,0,*66
1483488075.7,33008,8.81,72052.8,-11.67,-13.07,-13.33,0,*6E
1483488076.94,33009,8.81,72052.5,-11.65,-13.11,-13.37,0,*6E
1483488078.2,33010,8.81,72044.5,-11.67,-13.33,-13.51,0,*64
1483488079.46,33011,8.88,72052.3,-11.67,-13.33,-13.65,0,*62
1483488080.72,33012,8.81,72060.8,-11.67,-13.33,-13.69,0,*6D
1483488081.99,33013,8.81,72068.5,-11.67,-13.33,-13.65,0,*60
1483488083.2,33014,8.81,72078.0,-11.65,-13.23,-13.69,0,*68
1483488084.41,33015,8.81,72080.3,-11.65,-13.23,-13.69,0,*69
1483488085.67,33016,8.81,72064.3,-11.67,-13.33,-13.69,0,*69
1483488086.91,33017,8.81,72062.8,-11.65,-13.33,-13.55,0,*65
1483488088.17,33018,8.81,72060.3,-11.67,-13.37,-13.69,0,*63
1483488089.45,33019,8.81,72076.5,-11.67,-13.37,-13.79,0,*63
1483488090.71,33020,8.81,72080.3,-11.65,-13.37,-13.79,0,*6B
1483488091.96,33021,8.81,72092.5,-11.65,-13.51,-13.83,0,*6F
1483488093.2,33022,8.81,72090.0,-11.65,-13.55,-13.97,0,*6D
1483488094.44,33023,8.81,72092.3,-11.67,-13.69,-14.23,0,*69
1483488095.66,33024,8.81,72092.5,-11.65,-13.93,-14.37,0,*6C
1483488096.93,33025,8.81,72088.8,-11.67,-14.05,-14.69,0,*6C
1483488098.17,33026,8.81,72094.0,-11.65,-13.93,-14.79,0,*64
1483488099.42,33027,8.81,72088.3,-11.65,-14.19,-14.97,0,*60
1483488100.64,33028,8.81,72092.0,-11.65,-14.23,-15.07,0,*6E
1483488101.92,33029,8.81,72092.0,-11.67,-14.23,-15.21,0,*69
1483488103.16,33030,8.81,72096.8,-11.65,-14.37,-15.21,0,*66
1483488104.45,33031,8.81,72074.8,-11.67,-14.43,-15.21,0,*66
1483488105.72,33032,8.88,72070.5,-11.67,-14.43,-15.11,0,*66
1483488106.94,33033,8.81,72076.3,-11.65,-14.37,-15.11,0,*66
1483488108.24,33034,8.88,72080.5,-11.67,-14.43,-14.97,0,*6F
1483488109.51,33035,8.81,72058.5,-11.67,-14.33,-14.83,0,*6C
1483488110.73,33036,8.81,72064.8,-11.65,-14.19,-14.69,0,*61
1483488112.0,33037,8.81,72084.5,-11.67,-14.19,-14.51,0,*69
1483488113.27,33038,8.81,72084.3,-11.67,-14.05,-14.37,0,*6B
1483488114.52,33039,8.81,72076.5,-11.65,-13.97,-14.23,0,*61
1483488115.76,33040,8.81,72082.8,-11.65,-13.83,-14.11,0,*6B
1483488117.0,33041,8.81,72074.0,-11.65,-13.83,-14.11,0,*6A
1483488118.22,33042,8.81,72064.0,-11.65,-13.69,-13.93,0,*60
1483488119.47,33043,8.81,72080.3,-11.67,-13.65,-13.79,0,*6B
1483488120.74,33044,8.81,72092.3,-11.67,-13.51,-13.79,0,*6B
1483488121.99,33045,8.81,72068.0,-11.67,-13.55,-13.79,0,*6E
1483488123.21,33046,8.81,72064.3,-11.65,-13.51,-13.69,0,*6A
1483488124.45,33047,8.81,72056.8,-11.65,-13.37,-13.51,0,*60
1483488125.74,33048,8.81,72040.0,-11.67,-13.33,-13.37,0,*69
1483488126.98,33049,8.81,72024.5,-11.67,-13.23,-13.47,0,*6E
1483488128.22,33050,8.81,72006.5,-11.65,-13.23,-13.37,0,*63
1483488129.49,33051,8.81,71992.3,-11.67,-13.19,-13.33,0,*6D
1483488130.73,33052,8.81,71996.5,-11.65,-13.19,-13.33,0,*6C
1483488131.96,33053,8.81,71980.5,-11.65,-13.07,-13.19,0,*6A
1483488133.18,33054,8.81,71996.0,-11.65,-13.11,-13.19,0,*6A
1483488134.39,33055,8.81,72002.5,-11.61,-13.07,-13.15,0,*64
1483488135.6,33056,8.81,72040.5,-11.61,-12.93,-13.15,0,*6B
1483488136.83,33057,8.81,72042.5,-11.61,-13.01,-13.15,0,*60
1483488138.05,33058,8.81,72044.3,-11.65,-13.07,-13.11,0,*69
1483488139.26,33059,8.81,72048.5,-11.65,-13.07,-13.11,0,*68
1483488140.5,33060,8.81,72080.8,-11.61,-13.01,-13.15,0,*64
1483488141.71,33061,8.81,72056.3,-11.61,-13.07,-13.15,0,*63
1483488142.92,33062,8.81,72050.3,-11.61,-12.93,-13.15,0,*6C
1483488144.16,33063,8.81,72060.8,-11.61,-12.93,-13.01,0,*68
1483488145.37,33064,8.81,72098.8,-11.61,-12.93,-13.15,0,*6A
1483488146.61,33065,8.81,72078.5,-11.61,-13.01,-13.15,0,*61
1483488147.87,33066,8.81,72092.5,-11.61,-13.01,-13.29,0,*6D
1483488149.13,33067,8.81,72102.8,-11.61,-13.01,-13.29,0,*6C
1483488150.37,33068,8.81,72082.0,-11.61,-13.07,-13.29,0,*65
1483488151.6,33069,8.81,72076.8,-11.61,-13.07,-13.29,0,*64
1483488152.84,33070,8.81,72078.5,-11.61,-13.07,-13.29,0,*6C
1483488154.13,33071,8.81,72070.3,-11.59,-13.01,-13.29,0,*60
1483488155.39,33072,8.81,72060.0,-11.59,-13.01,-13.23,0,*69
1483488156.68,33073,8.81,72050.8,-11.59,-13.01,-13.29,0,*62
1483488157.89,33074,8.81,72086.8,-11.61,-13.15,-13.43,0,*67
1483488159.1,33075,8.81,72076.0,-11.61,-13.15,-13.51,0,*65
1483488160.34,33076,8.81,72074.8,-11.59,-13.23,-13.43,0,*6B
1483488161.6,33077,8.81,72082.0,-11.59,-13.23,-13.37,0,*69
1483488162.84,33078,8.81,72048.3,-11.59,-13.23,-13.43,0,*65
1483488164.07,33079,8.81,72066.0,-11.61,-13.29,-13.47,0,*61
1483488165.28,33080,8.81,72076.5,-11.61,-13.15,-13.51,0,*6F
1483488166.5,33081,8.81,72070.0,-11.61,-13.19,-13.51,0,*62
1483488167.73,33082,8.81,72080.3,-11.59,-13.23,-13.47,0,*64
1483488168.97,33083,8.81,72074.3,-11.59,-13.23,-13.47,0,*65
1483488170.26,33084,8.81,72070.8,-11.59,-13.29,-13.61,0,*6C
1483488171.52,33085,8.81,72052.3,-11.59,-13.29,-13.69,0,*65
1483488172.76,33086,8.81,72052.0,-11.61,-13.29,-13.73,0,*66
1483488173.99,33087,8.81,72038.8,-11.61,-13.33,-13.73,0,*6C
1483488175.23,33088,8.81,72040.0,-11.61,-13.37,-13.73,0,*67
1483488176.49,33089,8.81,72044.8,-11.61,-13.37,-13.87,0,*6D
1483488177.78,33090,8.81,72062.0,-11.59,-13.37,-13.97,0,*6F
1483488179.05,33091,8.81,72066.8,-11.59,-13.43,-14.01,0,*65
1483488180.32,33092,8.81,72064.0,-11.59,-13.55,-14.01,0,*61
1483488181.55,33093,8.81,72088.0,-11.61,-13.65,-14.05,0,*6C
1483488182.79,33094,8.81,72084.0,-11.61,-13.79,-14.19,0,*6B
1483488184.03,33095,8.81,72096.0,-11.59,-13.69,-14.15,0,*6C
1483488185.28,33096,8.81,72102.3,-11.59,-13.73,-14.15,0,*64
1483488186.49,33097,8.81,72092.3,-11.61,-13.73,-14.19,0,*62
1483488187.72,33098,8.81,72094.5,-11.59,-13.69,-14.11,0,*65
1483488188.97,33099,8.81,72068.0,-11.59,-13.55,-14.15,0,*6F
1483488190.21,33100,8.81,72064.3,-11.61,-13.51,-14.05,0,*60
1483488191.43,33101,8.81,72074.0,-11.61,-13.51,-14.19,0,*6C
1483488192.65,33102,8.81,72080.5,-11.61,-13.51,-14.15,0,*63
1483488193.86,33103,8.81,72076.3,-11.61,-13.65,-14.19,0,*69
1483488195.08,33104,8.81,72068.5,-11.61,-13.73,-14.29,0,*6A
1483488196.34,33105,8.81,72074.5,-11.59,-13.73,-14.43,0,*6C
1483488197.59,33106,8.81,72070.5,-11.61,-14.01,-14.65,0,*62
1483488198.86,33107,8.81,72076.3,-11.59,-13.97,-14.89,0,*62
1483488200.11,33108,8.81,72086.5,-11.61,-14.19,-15.01,0,*66
1483488201.35,33109,8.81,72090.5,-11.59,-14.29,-15.15,0,*6A
1483488202.6,33110,8.81,72094.3,-11.61,-14.37,-15.39,0,*68
1483488203.89,33111,8.81,72092.8,-11.59,-14.43,-15.43,0,*6C
1483488205.19,33112,8.81,72092.8,-11.59,-14.43,-15.43,0,*6F
1483488206.47,33113,8.81,72086.0,-11.61,-14.51,-15.39,0,*6B
1483488207.77,33114,8.81,72092.0,-11.59,-14.47,-15.35,0,*6C
1483488209.04,33115,8.81,72082.3,-11.61,-14.47,-15.35,0,*66
1483488210.31,33116,8.81,72092.0,-11.61,-14.47,-15.35,0,*65
1483488211.59,33117,8.81,72094.3,-11.61,-14.47,-15.35,0,*64
1483488212.83,33118,8.88,72094.8,-11.61,-14.37,-15.21,0,*69
1483488214.1,33119,8.81,72104.5,-11.61,-14.47,-15.21,0,*6F
1483488215.37,33120,8.81,72108.5,-11.61,-14.51,-15.35,0,*67
1483488216.64,33121,8.81,72116.0,-11.61,-14.51,-15.35,0,*66
1483488217.88,33122,8.81,72130.8,-11.61,-14.61,-15.39,0,*6A
1483488219.11,33123,8.81,72112.5,-11.61,-14.61,-15.49,0,*6C
1483488220.37,33124,8.81,72106.3,-11.59,-14.61,-15.43,0,*6A
1483488221.65,33125,8.81,72106.3,-11.59,-14.55,-15.29,0,*60
1483488222.92,33126,8.81,72114.5,-11.61,-14.51,-15.35,0,*61
1483488224.17,33127,8.81,72106.3,-11.61,-14.47,-15.15,0,*65
1483488225.41,33128,8.88,72102.0,-11.65,-14.43,-15.11,0,*6E
1483488226.66,33129,8.81,72100.5,-11.65,-14.43,-15.11,0,*6F
1483488227.88,33130,8.88,72104.3,-11.65,-14.37,-15.07,0,*63
1483488229.1,33131,8.81,72084.8,-11.65,-14.37,-15.11,0,*65
1483488230.35,33132,8.81,72058.0,-11.65,-14.51,-15.11,0,*66
1483488231.62,33133,8.81,72054.0,-11.65,-14.55,-15.21,0,*60
1483488232.87,33134,8.81,72050.5,-11.61,-14.47,-15.15,0,*67
1483488234.08,33135,8.81,72048.8,-11.61,-14.37,-15.07,0,*62
1483488235.33,33136,8.81,72068.8,-11.65,-14.43,-15.07,0,*66
1483488236.57,33137,8.88,72042.5,-11.65,-14.33,-14.93,0,*6C
1483488237.79,33138,8.81,72022.8,-11.65,-14.23,-14.69,0,*67
1483488239.01,33139,8.81,72012.0,-11.65,-14.19,-14.69,0,*6F
1483488240.26,33140,8.81,72022.3,-11.65,-13.97,-14.65,0,*6C
1483488241.51,33141,8.81,72038.3,-11.61,-14.05,-14.61,0,*61
1483488242.76,33142,8.88,72042.3,-11.61,-14.05,-14.65,0,*66
1483488244.01,33143,8.88,72050.3,-11.61,-14.05,-14.65,0,*67
1483488245.25,33144,8.81,72064.5,-11.61,-14.19,-14.79,0,*60
1483488246.51,33145,8.81,72070.8,-11.59,-14.15,-14.89,0,*69
1483488247.75,33146,8.81,72074.8,-11.61,-14.29,-14.79,0,*61
1483488248.97,33147,8.81,72072.8,-11.61,-14.19,-14.65,0,*6E
1483488250.22,33148,8.81,72078.5,-11.61,-14.15,-14.79,0,*60
1483488251.46,33149,8.81,72090.3,-11.61,-14.29,-14.79,0,*6E
1483488252.68,33150,8.88,72090.5,-11.61,-14.19,-14.89,0,*6A
1483488253.93,33151,8.81,72094.8,-11.65,-14.33,-14.93,0,*6C
1483488255.17,33152,8.81,72076.0,-11.61,-14.29,-14.93,0,*60
1483488256.4,33153,8.81,72092.8,-11.61,-14.33,-14.93,0,*6A
1483488257.67,33154,8.81,72102.5,-11.59,-14.29,-15.01,0,*67
1483488258.92,33155,8.81,72094.8,-11.61,-14.47,-15.15,0,*60
1483488260.14,33156,8.81,72082.0,-11.61,-14.37,-15.07,0,*67
1483488261.4,33157,8.81,72076.0,-11.59,-14.33,-15.01,0,*6F
1483488262.62,33158,8.88,72092.0,-11.61,-14.37,-15.15,0,*6A
1483488263.89,33159,8.81,72082.0,-11.59,-14.55,-15.15,0,*64
1483488265.11,33160,8.81,72092.5,-11.61,-14.37,-15.07,0,*62
1483488266.36,33161,8.81,72072.5,-11.61,-14.47,-15.07,0,*64
1483488267.6,33162,8.81,72068.8,-11.61,-14.47,-15.07,0,*67
1483488268.82,33163,8.81,72078.3,-11.61,-14.33,-14.89,0,*62
1483488270.07,33164,8.81,72058.3,-11.65,-14.37,-14.83,0,*6F
1483488271.28,33165,8.81,72044.3,-11.61,-14.29,-14.61,0,*69
1483488272.53,33166,8.81,72074.8,-11.61,-14.05,-14.61,0,*64
1483488273.8,33167,8.81,72070.0,-11.61,-14.05,-14.51,0,*66
1483488275.08,33168,8.81,72094.3,-11.61,-14.01,-14.47,0,*6A
1483488276.29,33169,8.88,72090.0,-11.61,-13.93,-14.37,0,*60
1483488277.5,33170,8.88,72080.3,-11.61,-13.93,-14.29,0,*67
1483488278.74,33171,8.81,72100.5,-11.59,-13.73,-14.23,0,*69
1483488279.95,33172,8.81,72080.8,-11.61,-13.65,-14.15,0,*63
1483488281.19,33173,8.81,72082.5,-11.59,-13.73,-14.11,0,*6A
1483488282.46,33174,8.81,72090.3,-11.59,-13.69,-13.97,0,*6F
1483488283.72,33175,8.88,72090.3,-11.61,-13.79,-14.05,0,*68
1483488284.99,33176,8.81,72092.8,-11.59,-13.83,-14.11,0,*60
1483488286.23,33177,8.81,72074.0,-11.59,-13.73,-14.15,0,*6A
1483488287.5,33178,8.81,72062.3,-11.59,-13.73,-14.01,0,*60
1483488288.77,33179,8.81,72044.0,-11.59,-13.69,-13.97,0,*62
1483488290.03,33180,8.88,72022.8,-11.59,-13.55,-13.87,0,*6A
1483488291.26,33181,8.88,72064.3,-11.61,-13.43,-13.87,0,*67
1483488292.55,33182,8.81,72034.8,-11.59,-13.37,-13.83,0,*68
1483488293.81,33183,8.81,72070.5,-11.59,-13.47,-13.83,0,*6E
1483488295.07,33184,8.88,72092.5,-11.59,-13.43,-13.83,0,*6D
1483488296.33,33185,8.81,72084.0,-11.59,-13.43,-13.87,0,*68
1483488297.59,33186,8.81,72082.8,-11.59,-13.47,-14.01,0,*66
1483488298.86,33187,8.88,72080.3,-11.59,-13.55,-14.01,0,*64
1483488300.16,33188,8.88,72070.0,-11.59,-13.61,-14.01,0,*6C
1483488301.42,33189,8.81,72066.5,-11.55,-13.65,-14.05,0,*61
1483488302.67,33190,8.81,72072.5,-11.57,-13.83,-14.23,0,*67
1483488303.9,33191,8.88,72084.8,-11.57,-13.87,-14.29,0,*68
1483488305.14,33192,8.81,72084.5,-11.57,-13.87,-14.29,0,*6B
1483488306.41,33193,8.81,72092.5,-11.57,-13.97,-14.43,0,*67
1483488307.71,33194,8.81,72106.0,-11.59,-13.97,-14.47,0,*6A
1483488308.97,33195,8.81,72082.5,-11.57,-13.97,-14.43,0,*61
1483488310.22,33196,8.81,72094.0,-11.57,-13.97,-14.33,0,*65
1483488311.49,33197,8.81,72090.5,-11.59,-13.83,-14.23,0,*6E
1483488312.73,33198,8.81,72102.5,-11.57,-13.55,-14.01,0,*64
1483488313.99,33199,8.88,72098.0,-11.57,-13.61,-13.83,0,*6F
1483488315.2,33200,8.88,72104.5,-11.57,-13.47,-13.69,0,*6C
1483488316.4,33201,8.81,72098.0,-11.57,-13.43,-13.47,0,*65
1483488317.63,33202,8.81,72102.5,-11.57,-13.15,-13.37,0,*62
1483488318.9,33203,8.88,72086.0,-11.59,-13.23,-13.29,0,*67
1483488320.13,33204,8.81,72082.8,-11.57,-13.15,-13.29,0,*6B
1483488321.35,33205,8.81,72086.8,-11.57,-13.07,-13.19,0,*6A
1483488322.56,33206,8.88,72092.3,-11.57,-13.11,-13.15,0,*62
1483488323.77,33207,8.88,72096.3,-11.57,-12.89,-13.15,0,*63
1483488324.98,33208,8.81,72070.5,-11.57,-12.89,-13.11,0,*68
1483488326.21,33209,8.81,72044.3,-11.57,-12.89,-13.01,0,*68
1483488327.45,33210,8.81,72034.0,-11.57,-12.83,-12.97,0,*64
1483488328.66,33211,8.81,72022.5,-11.57,-12.89,-12.97,0,*6F
1483488329.9,33212,8.81,72030.0,-11.57,-12.75,-12.89,0,*60
1483488331.19,33213,8.81,72060.0,-11.55,-12.71,-12.83,0,*6D
1483488332.46,33214,8.81,72062.0,-11.57,-12.75,-12.83,0,*6C
1483488333.73,33215,8.81,72072.0,-11.57,-12.71,-12.75,0,*60
1483488334.97,33216,8.81,72074.0,-11.57,-12.57,-12.89,0,*64
1483488336.26,33217,8.81,72088.8,-11.55,-12.57,-12.71,0,*60
1483488337.53,33218,8.88,72096.8,-11.57,-12.71,-12.83,0,*64
1483488338.79,33219,8.88,72106.5,-11.57,-12.61,-12.75,0,*6D
1483488340.08,33220,8.88,72108.3,-11.55,-12.57,-12.79,0,*6C
1483488341.38,33221,8.88,72104.8,-11.55,-12.53,-12.79,0,*69
1483488342.64,33222,8.81,72096.3,-11.55,-12.43,-12.79,0,*6B
1483488343.91,33223,8.81,72090.0,-11.55,-12.43,-12.71,0,*62
1483488345.21,33224,8.81,72066.8,-11.55,-12.53,-12.71,0,*64
1483488346.51,33225,8.88,72046.3,-11.55,-12.53,-12.71,0,*65
1483488347.78,33226,8.88,72068.8,-11.57,-12.57,-12.75,0,*64
1483488349.05,33227,8.81,72086.5,-11.55,-12.43,-12.71,0,*66
1483488350.29,33228,8.81,72094.0,-11.57,-12.47,-12.83,0,*62
1483488351.59,33229,8.81,72066.3,-11.55,-12.53,-12.71,0,*69
1483488352.88,33230,8.88,72064.0,-11.55,-12.53,-12.83,0,*6C
1483488354.15,33231,8.81,72064.5,-11.51,-12.53,-12.93,0,*68
1483488355.41,33232,8.81,72070.8,-11.51,-12.57,-12.97,0,*6B
1483488356.67,33233,8.81,72070.5,-11.51,-12.65,-12.97,0,*6B
1483488357.93,33234,8.81,72060.3,-11.51,-12.65,-13.07,0,*64
1483488359.19,33235,8.81,72030.5,-11.49,-12.65,-13.01,0,*6A
1483488360.43,33236,8.88,72042.8,-11.51,-12.93,-13.19,0,*60
1483488361.68,33237,8.88,72082.3,-11.51,-12.97,-13.19,0,*65
1483488362.92,33238,8.81,72048.8,-11.51,-12.97,-13.23,0,*63
1483488364.18,33239,8.81,72020.8,-11.51,-13.07,-13.37,0,*6F
1483488365.44,33240,8.88,72052.3,-11.49,-13.01,-13.37,0,*6E
1483488366.68,33241,8.88,72060.5,-11.51,-13.19,-13.55,0,*6B
1483488367.91,33242,8.81,72068.0,-11.49,-13.07,-13.61,0,*69
1483488369.18,33243,8.81,72056.0,-11.49,-13.01,-13.61,0,*6E
1483488370.44,33244,8.88,72056.5,-11.49,-13.01,-13.37,0,*6A
1483488371.68,33245,8.88,72052.0,-11.49,-12.93,-13.29,0,*6E
1483488372.9,33246,8.88,72040.3,-11.49,-12.89,-13.19,0,*65
1483488374.13,33247,8.88,72054.8,-11.49,-12.79,-13.15,0,*67
1483488375.36,33248,8.81,72068.5,-11.49,-12.89,-13.01,0,*62
1483488376.62,33249,8.88,72072.3,-11.51,-12.79,-13.07,0,*63
1483488377.86,33250,8.88,72078.0,-11.49,-12.75,-12.93,0,*62
1483488379.13,33251,8.88,72084.0,-11.51,-12.71,-12.97,0,*6A
1483488380.37,33252,8.81,72072.5,-11.49,-12.75,-12.93,0,*60
1483488381.63,33253,8.88,72064.5,-11.49,-12.75,-13.01,0,*6B
1483488382.89,33254,8.88,72074.5,-11.51,-12.71,-13.11,0,*60
1483488384.13,33255,8.88,72076.0,-11.49,-12.75,-13.07,0,*6B
1483488385.42,33256,8.88,72064.0,-11.47,-12.75,-13.01,0,*60
1483488386.68,33257,8.88,72064.3,-11.49,-12.75,-13.01,0,*6F
1483488387.92,33258,8.88,72066.8,-11.49,-12.75,-13.07,0,*66
1483488389.15,33259,8.88,72076.3,-11.49,-12.75,-13.07,0,*67
1483488390.39,33260,8.88,72080.3,-11.49,-12.75,-13.07,0,*6D
1483488391.63,33261,8.81,72092.5,-11.49,-12.75,-13.07,0,*6C
1483488392.86,33262,8.88,72084.5,-11.49,-12.65,-13.07,0,*6E
1483488394.1,33263,8.81,72068.0,-11.49,-12.65,-12.93,0,*63
1483488395.36,33264,8.88,72066.5,-11.51,-12.79,-12.97,0,*64
1483488396.61,33265,8.88,72064.3,-11.49,-12.75,-12.93,0,*64
1483488397.86,33266,8.88,72060.8,-11.51,-12.79,-13.07,0,*6E
1483488399.1,33267,8.81,72046.5,-11.51,-12.93,-13.07,0,*6B
1483488400.33,33268,8.88,72054.3,-11.49,-12.79,-13.07,0,*69
1483488401.54,33269,8.81,72058.8,-11.49,-12.89,-13.15,0,*64
1483488402.76,33270,8.81,72068.5,-11.49,-12.89,-13.19,0,*60
1483488404.0,33271,8.88,72068.0,-11.49,-12.93,-13.29,0,*69
1483488405.29,33272,8.88,72072.5,-11.47,-13.01,-13.29,0,*6E
1483488406.55,33273,8.88,72070.3,-11.49,-13.01,-13.33,0,*6A
1483488407.79,33274,8.88,72072.8,-11.49,-12.93,-13.33,0,*67
1483488409.05,33275,8.81,72082.3,-11.51,-13.07,-13.37,0,*67
1483488410.3,33276,8.88,72048.8,-11.49,-13.01,-13.19,0,*67
1483488411.57,33277,8.88,72070.3,-11.47,-13.01,-13.19,0,*68
1483488412.84,33278,8.88,72066.5,-11.47,-13.01,-13.19,0,*67
1483488414.1,33279,8.88,72070.5,-11.47,-13.01,-13.15,0,*6A
1483488415.34,33280,8.88,72076.8,-11.47,-12.93,-13.15,0,*66
1483488416.58,33281,8.81,72076.3,-11.47,-12.93,-13.15,0,*67
1483488417.82,33282,8.88,72070.3,-11.47,-12.93,-13.07,0,*67
1483488419.03,33283,8.81,72070.3,-11.49,-12.89,-13.15,0,*60
1483488420.24,33284,8.88,72078.0,-11.49,-12.89,-13.07,0,*64
1483488421.45,33285,8.88,72088.0,-11.49,-12.93,-13.15,0,*6D
1483488422.66,33286,8.81,72098.8,-11.49,-12.93,-13.15,0,*6E
1483488423.87,33287,8.81,72104.0,-11.49,-12.93,-13.15,0,*6F
1483488425.11,33288,8.88,72094.0,-11.47,-12.93,-13.15,0,*6E
1483488426.38,33289,8.88,72086.8,-11.47,-13.01,-13.19,0,*69
1483488427.64,33290,8.81,72088.8,-11.47,-13.07,-13.33,0,*6F
1483488428.9,33291,8.88,72106.5,-11.47,-13.15,-13.37,0,*69
1483488430.11,33292,8.88,72100.5,-11.45,-13.11,-13.43,0,*6F
1483488431.37,33293,8.81,72100.3,-11.47,-13.07,-13.61,0,*6B
1483488432.6,33294,8.88,72104.0,-11.47,-13.15,-13.47,0,*6B
1483488433.84,33295,8.88,72104.3,-11.47,-13.07,-13.51,0,*6E
1483488435.1,33296,8.88,72102.0,-11.47,-13.15,-13.37,0,*6E
1483488436.36,33297,8.88,72102.0,-11.47,-12.89,-13.29,0,*64
1483488437.61,33298,8.88,72102.3,-11.47,-12.93,-13.19,0,*63
1483488438.85,33299,8.81,72100.0,-11.47,-12.89,-13.15,0,*65
1483488440.1,33300,8.88,72084.3,-11.47,-12.89,-13.01,0,*61
1483488441.34,33301,8.88,72088.3,-11.45,-12.83,-12.97,0,*66
1483488442.61,33302,8.88,72090.5,-11.47,-12.79,-12.93,0,*66
1483488443.87,33303,8.88,72084.0,-11.47,-12.79,-12.89,0,*6C
1483488445.17,33304,8.88,72074.3,-11.47,-12.75,-12.79,0,*68
1483488446.46,33305,8.88,72036.8,-11.47,-12.65,-12.79,0,*68
1483488447.75,33306,8.88,72016.8,-11.47,-12.65,-12.65,0,*66
1483488449.03,33307,8.88,72012.3,-11.47,-12.65,-12.65,0,*67
1483488450.32,33308,8.88,72038.8,-11.47,-12.65,-12.75,0,*69
1483488451.62,33309,8.88,72062.8,-11.47,-12.65,-12.75,0,*68
1483488452.91,33310,8.81,72058.0,-11.47,-12.53,-12.75,0,*65
1483488454.2,33311,8.81,72078.5,-11.47,-12.65,-12.75,0,*61
1483488455.5,33312,8.88,72080.0,-11.47,-12.53,-12.75,0,*67
1483488456.79,33313,8.88,72082.8,-11.47,-12.53,-12.65,0,*67
1483488458.05,33314,8.88,72090.8,-11.49,-12.53,-12.65,0,*6E
1483488459.34,33315,8.88,72086.3,-11.47,-12.61,-12.75,0,*61
1483488460.64,33316,8.88,72082.0,-11.47,-12.53,-12.75,0,*63
1483488461.94,33317,8.88,72084.8,-11.47,-12.53,-12.79,0,*6E
1483488463.22,33318,8.88,72082.5,-11.47,-12.61,-12.79,0,*60
1483488464.49,33319,8.88,72084.5,-11.47,-12.61,-12.89,0,*6E
1483488465.75,33320,8.81,72082.5,-11.47,-12.65,-12.89,0,*60
1483488467.02,33321,8.88,72082.5,-11.47,-12.65,-12.89,0,*61
1483488468.29,33322,8.88,72082.3,-11.47,-12.75,-12.93,0,*68
1483488469.55,33323,8.88,72084.8,-11.45,-12.71,-13.01,0,*65
1483488470.79,33324,8.81,72082.5,-11.45,-12.71,-12.89,0,*63
1483488472.03,33325,8.88,72078.8,-11.45,-12.75,-13.07,0,*61
1483488473.26,33326,8.88,72084.3,-11.47,-12.89,-13.15,0,*60
1483488474.52,33327,8.88,72072.0,-11.47,-12.79,-13.15,0,*6E
1483488475.79,33328,8.88,72070.5,-11.47,-12.79,-13.19,0,*6D
1483488477.0,33329,8.88,72082.3,-11.45,-12.89,-13.15,0,*6D
1483488478.29,33330,8.88,72074.3,-11.47,-13.01,-13.33,0,*62
1483488479.56,33331,8.88,72074.8,-11.45,-13.01,-13.33,0,*61
1483488480.79,33332,8.88,72068.5,-11.47,-13.07,-13.47,0,*65
1483488481.99,33333,8.88,72076.8,-11.45,-13.11,-13.47,0,*61
1483488483.26,33334,8.88,72076.5,-11.47,-13.07,-13.37,0,*64
1483488484.48,33335,8.88,72062.3,-11.47,-13.15,-13.47,0,*61
1483488485.72,33336,8.88,72054.3,-11.45,-13.01,-13.43,0,*61
1483488486.96,33337,8.88,72038.0,-11.47,-13.07,-13.51,0,*67
1483488488.16,33338,8.88,72030.5,-11.45,-13.11,-13.47,0,*6A
1483488489.4,33339,8.88,72022.5,-11.45,-13.11,-13.61,0,*6F
1483488490.64,33340,8.88,72038.8,-11.45,-13.11,-13.61,0,*61
1483488491.9,33341,8.88,72022.8,-11.47,-13.29,-13.73,0,*6A
1483488493.16,33342,8.88,72024.3,-11.47,-13.29,-13.93,0,*67
1483488494.45,33343,8.88,72028.5,-11.47,-13.37,-14.01,0,*65
1483488495.69,33344,8.81,72030.0,-11.45,-13.47,-14.01,0,*67
1483488496.9,33345,8.88,72026.3,-11.45,-13.47,-14.15,0,*63
1483488498.14,33346,8.88,72040.5,-11.47,-13.65,-14.33,0,*66
1483488499.38,33347,8.88,72034.5,-11.47,-13.65,-14.37,0,*63